#timestamp,LO_Frequency,Hit 
1500760815.1,286047000.1,N
1500760816.0,286047000.1,N
1500760835.8,286047002.1,N
1500760855.7,286047001.6,N
1500760875.5,286047002.6,N
1500760895.3,286047002.2,N
1500760915.2,286047002.1,N
1500760935.0,286047001.7,N
1500760935.9,286047001.7,N
1500760955.8,286047001.7,N
1500760975.6,286047002.3,N
1500760995.4,286047002.0,N
1500761015.3,286047001.7,N
1500761035.1,286047002.4,N
1500761055.9,286047002.7,N
1500761075.7,286047002.4,N
1500761095.5,286046999.7,N
1500761115.4,286047002.2,N
1500761135.2,286047002.3,N
1500761155.0,286047001.9,N
1500761156.0,286047001.9,N
1500761175.8,286047002.0,N
1500761195.6,286047000.6,N
1500761215.5,286047000.5,N
1500761235.3,286047002.7,N
1500761255.1,286047001.0,N
1500761275.9,286047000.0,N
1500761295.7,286047000.3,N
1500761315.6,286047000.3,N
1500761335.4,286047002.2,N
1500761355.2,286047002.5,N
1500761375.1,286047002.4,N
1500761376.0,286047002.4,N
1500761395.8,286047001.1,N
1500761415.6,286047000.8,N
1500761435.5,286047000.2,N
1500761455.3,286046999.9,N
1500761475.2,286047002.6,N
1500761495.9,286047002.8,N
1500761515.7,286047002.4,N
1500761535.6,286047000.1,N
1500761555.4,286047002.8,N
1500761575.3,286047002.0,N
1500761595.1,286047002.1,N
1500761596.0,286047002.1,N
1500761615.8,286047002.0,N
1500761635.7,286047002.1,N
1500761655.5,286047002.6,N
1500761675.3,286047002.7,N
1500761695.2,286047000.1,N
1500761715.0,286047002.5,N
1500761715.9,286047002.5,N
1500761735.8,286046999.8,N
1500761755.6,286047002.8,N
1500761775.4,286047000.7,N
1500761795.3,286047000.6,N
1500761815.1,286047000.2,N
1500761835.9,286047001.1,N
1500761855.7,286046998.1,N
1500761875.5,286046998.6,N
1500761895.4,286047000.5,N
1500761915.2,286047000.9,N
1500761935.0,286047000.2,N
1500761935.9,286047000.2,N
1500761955.8,286047000.2,N
1500761975.6,286047002.3,N
1500761995.5,286047001.5,N
1500762015.3,286047001.7,N
1500762035.1,286047002.0,N
1500762055.9,286047002.1,N
1500762075.7,286047002.7,N
1500762095.6,286047000.4,N
1500762115.4,286047000.6,N
1500762135.2,286047000.4,N
1500762155.1,286047002.7,N
1500762156.0,286047002.7,N
1500762175.8,286046999.7,N
1500762195.6,286047001.5,N
1500762215.5,286047002.0,N
1500762235.3,286046999.8,N
1500762255.2,286047002.5,N
1500762275.9,286047001.8,N
1500762295.7,286047001.3,N
1500762315.6,286047003.9,N
1500762335.4,286047003.1,N
1500762355.3,286047001.8,N
1500762375.1,286047003.8,N
1500762376.0,286047003.8,N
1500762395.8,286047003.8,N
1500762415.7,286047002.4,N
1500762435.5,286047002.5,N
1500762455.3,286047004.2,N
1500762475.2,286047001.6,N
1500762495.0,286047003.6,N
1500762495.9,286047003.6,N
1500762515.8,286047003.0,N
1500762535.6,286047002.4,N
1500762555.4,286047001.8,N
1500762575.3,286047002.3,N
1500762595.1,286047002.5,N
1500762615.9,286047003.8,N
1500762635.7,286047003.1,N
1500762655.5,286047003.7,N
1500762675.4,286047003.6,N
1500762695.2,286047005.8,N
1500762715.0,286047005.6,N
1500762715.9,286047005.6,N
1500762735.8,286047006.1,N
1500762755.6,286047009.2,N
1500762775.5,286047008.3,N
1500762795.3,286047006.7,N
1500762815.1,286047006.6,N
1500762835.9,286047006.8,N
1500762855.7,286047004.7,N
1500762875.6,286047005.3,N
1500762895.4,286047007.6,N
1500762915.2,286047005.7,N
1500762935.1,286047004.7,N
1500762936.0,286047004.7,N
1500762955.8,286047007.5,N
1500762975.6,286047006.3,N
1500762995.5,286047007.6,N
1500763015.3,286047004.5,N
1500763035.2,286047004.5,N
1500763055.9,286047007.0,N
1500763075.7,286047004.5,N
1500763095.6,286047005.2,N
1500763115.4,286047004.5,N
1500763135.2,286047005.0,N
1500763155.1,286047004.9,N
1500763156.0,286047004.9,N
1500763175.8,286047005.2,N
1500763195.7,286047005.6,N
1500763215.5,286047003.2,N
1500763235.3,286047004.4,N
1500763255.2,286047004.0,N
1500763275.0,286047003.9,N
1500763275.9,286047003.9,N
1500763295.8,286047006.0,N
1500763315.6,286047003.6,N
1500763335.4,286047003.3,N
1500763355.3,286047003.9,N
1500763375.1,286047002.9,N
1500763395.8,286047003.0,N
1500763415.7,286047005.9,N
1500763435.5,286047005.8,N
1500763455.4,286047005.5,N
1500763475.2,286047003.0,N
1500763495.0,286047005.5,N
1500763495.9,286047005.5,N
1500763515.8,286047004.5,N
1500763535.6,286047007.2,N
1500763555.5,286047004.6,N
1500763575.3,286047007.4,N
1500763595.1,286047004.5,N
1500763615.9,286047007.2,N
1500763635.7,286047003.1,N
1500763655.5,286047007.5,N
1500763675.4,286047005.4,N
1500763695.2,286047006.7,N
1500763715.1,286047009.1,N
1500763716.0,286047009.1,N
1500763735.8,286047007.5,N
1500763755.6,286047009.1,N
1500763775.5,286047006.8,N
1500763795.3,286047004.5,N
1500763815.1,286047005.0,N
1500763835.9,286047002.9,N
1500763855.7,286047005.6,N
1500763875.6,286047005.3,N
1500763895.4,286047007.1,N
1500763915.2,286047004.7,N
1500763935.1,286047005.2,N
1500763936.0,286047005.2,N
1500763955.8,286047004.9,N
1500763975.7,286047004.8,N
1500763995.5,286047006.9,N
1500764015.3,286047006.4,N
1500764035.2,286047004.5,N
1500764055.0,286047005.1,N
1500764055.9,286047005.1,N
1500764075.7,286047005.2,N
1500764095.6,286047004.7,N
1500764115.4,286047004.9,N
1500764135.3,286047007.3,N
1500764155.1,286047006.8,N
1500764175.8,286047008.4,N
1500764195.7,286047007.1,N
1500764215.5,286047004.8,N
1500764235.4,286047005.2,N
1500764255.2,286047007.4,N
1500764275.0,286047006.5,N
1500764275.9,286047006.5,N
1500764295.8,286047007.5,N
1500764315.6,286047007.0,N
1500764335.4,286047004.8,N
1500764355.3,286047006.0,N
1500764375.1,286047003.9,N
1500764395.9,286047003.6,N
